Wilmington, OH

5:17 AM EDT on August 21, 2017 (GMT -0400)
Airborne

Weather History for KILN - March, 2013

Change the Weather History Date:

Friday, March 8, 2013

  Actual Average (KFFO) Record (KFFO)
Temperature  
Mean Temperature 31 °F -  
Max Temperature 37 °F 43 °F 73 °F (2016)
Min Temperature 25 °F 24 °F 15 °F (1999)
Degree Days  
Heating Degree Days 34    
Moisture  
Dew Point 24 °F    
Average Humidity 73    
Maximum Humidity 85    
Minimum Humidity 57    
Precipitation  
Precipitation 0.00 in - - ()
Sea Level Pressure  
Sea Level Pressure 30.48 in    
Wind  
Wind Speed 6 mph (NNE)    
Max Wind Speed 12 mph    
Max Gust Speed -    
Visibility 10 miles    
Events      
Averages and records for this station are not official NWS values.
T = Trace of Precipitation, MM = Missing Value Source: NWS Daily Summary

Daily Weather History Graph

Daily Weather History Graph

Search for Another Location

Airport or City:

Trip Planner

Search our weather history database for the weather conditions in past years. The results will help you decide how hot, cold, wet, or windy it might be!

Date:

Astronomy

Mar. 08, 2013 Rise Set
Actual Time 6:57 AM EST 6:35 PM EST
Civil Twilight 6:30 AM EST 7:01 PM EST
Nautical Twilight 5:59 AM EST 7:33 PM EST
Astronomical Twilight 5:28 AM EST 8:04 PM EST
Moon 4:39 AM EST (3/8) 3:29 PM EST (3/8)
Length of Visible Light 12h 31m
Length of Day
11h 38m
Waning Crescent, 12% of the Moon is Illuminated
Mar 8
Waning Crescent
Mar 11
New
Mar 19
First Quarter
Mar 27
Full
Apr 3
Last Quarter

Hourly Weather History & Observations

Time (EST) Temp. Windchill Dew Point Humidity Pressure Visibility Wind Dir Wind Speed Gust Speed Precip Events Conditions
12:54 AM 30.9 °F 26.2 °F 24.1 °F 76% 30.43 in 10.0 mi North 4.6 mph - N/A   Mostly Cloudy
1:54 AM 28.9 °F 23.9 °F 23.0 °F 78% 30.44 in 10.0 mi NNW 4.6 mph - N/A   Clear
2:54 AM 28.9 °F 22.8 °F 21.9 °F 75% 30.43 in 10.0 mi NNW 5.8 mph - N/A   Clear
3:54 AM 27.0 °F 20.5 °F 21.9 °F 81% 30.43 in 10.0 mi NNW 5.8 mph - N/A   Clear
4:54 AM 27.0 °F 20.5 °F 21.0 °F 78% 30.45 in 9.0 mi NNW 5.8 mph - N/A   Clear
5:54 AM 26.1 °F 18.4 °F 21.0 °F 81% 30.48 in 9.0 mi North 6.9 mph - N/A   Clear
6:54 AM 25.0 °F 18.1 °F 21.0 °F 85% 30.51 in 8.0 mi North 5.8 mph - N/A   Clear
7:54 AM 26.1 °F 20.5 °F 21.9 °F 84% 30.53 in 7.0 mi NNE 4.6 mph - N/A   Clear
8:54 AM 28.9 °F 22.8 °F 23.0 °F 78% 30.51 in 8.0 mi NE 5.8 mph - N/A   Clear
9:54 AM 32.0 °F 23.0 °F 21.0 °F 64% 30.52 in 10.0 mi NE 11.5 mph - N/A   Clear
10:54 AM 33.1 °F 26.1 °F 21.0 °F 61% 30.53 in 10.0 mi NE 8.1 mph - N/A   Clear
11:54 AM 34.0 °F 28.8 °F 21.0 °F 59% 30.53 in 10.0 mi NNE 5.8 mph - N/A   Clear
12:54 PM 35.1 °F 28.6 °F 21.9 °F 59% 30.51 in 10.0 mi North 8.1 mph - N/A   Clear
1:54 PM 36.0 °F 32.1 °F 24.1 °F 62% 30.50 in 10.0 mi NNE 4.6 mph - N/A   Clear
2:54 PM 37.9 °F 33.5 °F 24.1 °F 57% 30.49 in 10.0 mi North 5.8 mph - N/A   Clear
3:54 PM 37.9 °F 35.5 °F 26.1 °F 62% 30.48 in 10.0 mi NNE 3.5 mph - N/A   Clear
4:54 PM 37.0 °F 32.4 °F 27.0 °F 67% 30.47 in 10.0 mi NNE 5.8 mph - N/A   Clear
5:54 PM 37.0 °F 31.6 °F 28.9 °F 73% 30.45 in 10.0 mi North 6.9 mph - N/A   Clear
6:54 PM 34.0 °F 28.8 °F 28.0 °F 79% 30.47 in 10.0 mi North 5.8 mph - N/A   Clear
7:54 PM 33.1 °F 26.9 °F 26.1 °F 75% 30.47 in 10.0 mi North 6.9 mph - N/A   Clear
8:54 PM 32.0 °F 27.5 °F 26.1 °F 79% 30.47 in 9.0 mi NNE 4.6 mph - N/A   Clear
9:54 PM 30.0 °F 26.5 °F 25.0 °F 82% 30.48 in 9.0 mi North 3.5 mph - N/A   Clear
10:54 PM 30.0 °F 24.1 °F 24.1 °F 79% 30.45 in 10.0 mi ENE 5.8 mph - N/A   Clear
11:54 PM 30.0 °F 25.2 °F 24.1 °F 79% 30.45 in 10.0 mi NE 4.6 mph - N/A   Clear